User: anonymous   Login
Location: Unspecified
(0.0000°N, 0.0000°E)
Time: 00:14:28
(UTC+00:00)
Language:

STARLINK-5436 - Orbit

View from above orbital plane
View from above orbital plane
View from above satellite
View from above satellite

Ground track
Ground track

The orbit is defined by the following mean orbital elements,

1 54795U          26145.14190368 +.00000000 +00000-0 -10332-3 0 00006
2 54795  53.2135  45.7393 0001497  83.4060 276.7103 15.08846732    04
Epoch (UTC): 25 May 2026 03:24:20
Eccentricity: 0.0001497
inclination: 53.2135°
perigee height: 539 km
apogee height: 541 km
right ascension of ascending node: 45.7393°
argument of perigee: 83.4060°
revolutions per day: 15.08846732
mean anomaly at epoch: 276.7103°

The dashed part of the orbit path shows where the satellite is in the earth's shadow,  

DLR